Location: ????????
(55.4000°N, 39.1167°E)
Time: 04:06:17
(UTC+00:00)

Cosmos 1934 Rocket - Pass Details

Date: 19 May 2025
Orbit: 938 x 997 km, 83.0° (Epoch: 15 June)

Event Time Altitude Azimuth Distance (km) Brightness Sun altitude
Rises 19:37:15 0° 349° (NNW) 3,663 8.8 -11.5°
Reaches altitude 10° 19:39:47 10° 352° (N) 2,721 7.7 -11.7°
Maximum altitude 19:45:59 64° 74° (ENE) 1,083 4.2 -12.0°
Enters shadow 19:51:03 16° 153° (SSE) 2,314 5.3 -12.3°
